RH
36 43 44 36 33 35 44 56 63 69 63 67 68 62 61 60 53 47 45 37 27 26 27 29 29 29 27 25 24 24 25 25 25 25 23 23 24 24 23 21 21 23 26 27
47 46 37 34 34 36 49 55 64 70 68 60 60 63 67 68 60 46 41 30 22 24 26 27 27 27 25 25 25 25 26 27 27 26 25 27 28 29 28 27 28 28 28 30
53 43 36 40 51 48 46 54 54 58 54 55 60 54 51 53 51 42 33 22 20 21 24 25 25 26 25 26 27 28 29 30 30 27 27 28 29 29 29 30 32 34 34 34
60 48 46 57 52 49 49 43 49 51 53 62 47 47 39 36 32 26 23 21 22 22 25 26 27 27 26 28 30 31 32 32 30 27 28 29 29 31 34 37 38 39 39 38
54 59 51 47 54 48 50 48 46 52 52 48 45 44 32 27 26 24 22 22 23 23 25 27 28 29 29 31 32 33 34 33 29 30 30 32 34 36 38 39 40 41 42 43
55 45 58 53 43 44 43 45 44 43 44 45 38 36 32 28 25 25 24 23 24 25 27 28 29 28 29 32 34 35 34 32 33 33 33 33 35 37 40 43 46 47 46 40
49 44 43 48 53 44 43 44 51 54 50 45 31 30 32 27 26 25 24 24 25 25 26 27 27 29 31 34 35 35 35 35 35 36 37 40 42 43 46 46 42 36 32 29
48 47 49 47 49 48 50 49 47 43 44 43 36 32 30 25 25 24 25 25 25 26 27 28 30 32 34 36 37 38 38 38 39 41 42 41 39 36 33 32 31 32 32 33
57 49 44 43 45 47 47 45 42 41 32 31 30 27 24 26 25 25 25 25 26 27 28 32 34 36 37 37 38 38 38 36 35 34 33 32 31 32 32 32 34 34 35 36
46 55 47 45 43 41 43 40 40 34 32 34 27 33 32 27 25 25 26 26 28 30 31 32 33 33 32 30 29 29 28 28 28 28 30 31 31 32 33 34 36 36 37 37
48 44 45 41 41 39 33 33 30 29 28 29 29 32 29 28 28 26 28 30 30 31 31 30 29 27 26 25 24 24 26 27 28 29 29 30 31 34 36 37 37 36 34 34
48 48 42 35 29 26 26 25 25 29 28 26 27 31 26 26 28 29 31 32 31 29 27 24 24 24 22 24 26 27 27 28 28 28 29 29 31 32 33 34 34 35 34 33
30 27 29 26 24 22 23 23 25 25 28 34 35 32 29 30 31 31 30 27 25 23 23 24 23 25 26 27 28 29 30 31 31 30 28 28 30 32 35 36 36 35 32 31
27 28 28 33 32 25 21 21 23 25 30 27 32 35 33 32 30 28 24 21 20 21 22 24 25 27 28 29 30 31 32 32 30 28 28 32 35 36 36 35 32 32 32 30
26 27 22 23 23 23 24 26 24 25 28 31 32 33 33 29 26 19 17 17 20 22 25 25 27 29 30 32 32 34 33 28 27 30 33 35 36 37 33 32 29 29 30 32
27 30 24 25 26 26 26 27 29 30 30 30 28 27 24 19 17 16 17 19 21 25 28 28 30 32 34 35 35 32 26 29 31 33 35 37 35 31 28 29 31 31 33 34
28 30 32 36 34 35 36 34 34 30 25 23 22 20 16 15 14 15 18 21 24 26 29 32 33 35 38 37 31 26 28 30 33 36 36 31 30 31 33 34 37 40 41 42
31 35 41 52 41 43 34 28 23 23 18 16 15 15 15 15 15 19 21 24 27 29 33 35 38 39 37 30 27 28 31 35 37 34 31 32 35 34 37 43 47 48 50 53
39 39 47 53 47 34 29 24 17 14 13 12 13 16 15 17 18 21 23 26 30 34 36 39 40 36 29 28 31 35 38 36 35 33 34 36 37 40 45 51 56 57 59 61
40 40 42 43 53 48 24 15 13 10 17 15 15 16 16 18 23 27 29 32 35 39 41 40 36 30 30 34 38 40 39 37 36 35 37 40 43 48 52 60 63 64 60 57
43 41 43 42 46 29 18 14 11 17 23 15 15 16 18 24 25 27 30 34 38 41 40 34 31 32 35 40 42 42 40 37 38 39 41 42 48 54 59 65 64 59 54 59
40 44 38 30 35 33 17 15 15 17 15 16 16 18 22 25 27 30 34 38 41 39 34 32 33 35 40 44 44 43 40 39 40 41 43 46 54 59 65 64 58 51 56 77
38 29 28 28 26 17 14 13 13 14 16 17 19 21 24 27 30 34 38 39 38 34 34 36 38 44 48 48 45 42 41 42 42 45 48 54 60 67 67 58 49 51 75 96
28 21 21 17 13 13 13 12 13 15 17 19 21 24 26 29 34 36 37 36 34 35 38 42 47 50 48 46 44 44 44 46 47 49 53 61 70 72 60 50 50 67 93 96
24 20 15 13 12 14 14 14 15 16 18 20 25 27 29 33 35 36 34 34 36 38 44 49 50 48 46 45 45 46 48 49 51 54 60 70 75 66 50 46 59 91 95 97
19 16 17 17 13 16 16 15 16 17 20 25 27 30 33 34 35 34 34 36 38 43 47 47 47 45 45 46 49 50 51 54 55 58 67 76 71 55 46 48 74 96 95 96